Location: Bernadets
(43.3537°N, 0.3167°E)
Time: 00:14:35
(UTC+00:00)

Cosmos 1408 - Pass Details

Date: 24 October 2021
Orbit: 465 x 490 km, 82.6° (Epoch: 15 November)

Event Time Altitude Azimuth Distance (km) Brightness Sun altitude
Rises 19:04:09 0° 348° (NNW) 2,531 6.4 -23.0°
Reaches altitude 10° 19:06:16 10° 344° (NNW) 1,644 5.5 -23.3°
Enters shadow 19:09:21 53° 300° (WNW) 583 3.2 -23.9°
